Regional Weather Roundup
Issued by NWS

Home | Current Version | Previous Version | Text Only | Print | Product List | Glossary Off
Versions: 1 2 3 4 5 6 7 8 9 10 11 12 13 14 15 16 17 18 19 20 21 22 23 24 25 26 27 28 29 30 31 32 33 34 35 36 37 38 39 40 41 42 43 44 45 46 47 48 49 50

000
ASUS43 KMKX 010000
RWRWI

WISCONSIN REGIONAL WEATHER ROUNDUP
NATIONAL WEATHER SERVICE MILWAUKEE/SULLIVAN WI
700 PM CDT TUE SEP 30 2014

NOTE: "FAIR" INDICATES FEW OR NO CLOUDS BELOW 12,000 FEET WITH NO
SIGNIFICANT WEATHER AND/OR OBSTRUCTIONS TO VISIBILITY.

WIZ001-002-006>008-014>016-023>028-010100-
NORTHWEST WISCONSIN

CITY           SKY/WX    TMP DP  RH WIND       PRES   REMARKS
SUPERIOR ARPT  CLOUDY    47  44  87 E14       29.99S
ASHLAND        CLOUDY    47  43  86 NE8       30.01F
6HR MIN TEMP:  47; 6HR MAX TEMP:  53;

HAYWARD        MOCLDY    55  45  68 E5        29.96S
6HR MIN TEMP:  51; 6HR MAX TEMP:  62;

SIREN          MOCLDY    55  45  69 SE3       29.95S
CUMBERLAND     MOCLDY    50  43  76 S3        29.96S
RICE LAKE      MOCLDY    52  44  74 SE6       29.98S
6HR MIN TEMP:  49; 6HR MAX TEMP:  57;

CHETEK         MOCLDY    53  45  75 SE6       29.96F
LADYSMITH      MOCLDY    54  46  74 S6        29.99S
EAU CLAIRE     NOT AVBL
MENOMONIE      MOCLDY    54  44  69 E9        29.96F
NEW RICHMOND   MOCLDY    53  43  68 SE8       29.93F
OSCEOLA        MOCLDY    54  45  71 E8        29.95F
$$

WIZ003>005-009-010-017-018-010100-
NORTH CENTRAL WISCONSIN

CITY           SKY/WX    TMP DP  RH WIND       PRES   REMARKS
MANITOWISH WTR CLEAR     49  46  88 CALM      30.00S
ARBOR VITAE    CLEAR     54  45  72 CALM      30.00S
WOODRUFF       CLEAR     54  45  72 CALM      30.00S
RHINELANDER    CLEAR     50  42  74 SE5       30.01S
6HR MIN TEMP:  47; 6HR MAX TEMP:  57;

EAGLE RIVER    CLEAR     50  41  71 E5        30.00F
LAND O LAKES   CLEAR     48  44  85 CALM      30.02S
PHILLIPS       MOCLDY    51  43  73 E3        29.98S
6HR MIN TEMP:  51; 6HR MAX TEMP:  60;

TOMAHAWK       PTCLDY    51  43  75 CALM      30.01S
MEDFORD        MOCLDY    49  42  75 SE3       30.00S
MERRILL        PTCLDY    52  44  74 SE5       30.00S
$$

WIZ029-030-035-036-043>047-010100-
CENTRAL WISCONSIN

CITY           SKY/WX    TMP DP  RH WIND       PRES   REMARKS
WAUSAU         MOCLDY    48  42  80 SE9       30.01S
6HR MIN TEMP:  48; 6HR MAX TEMP:  55;

MOSINEE        CLEAR     46  43  87 SE6       30.03S
MARSHFIELD     MOCLDY    48  42  80 SE8       30.01R
6HR MIN TEMP:  48; 6HR MAX TEMP:  55;

STEVENS POINT  CLOUDY    46  41  83 SE7       30.03S
WAUPACA        CLOUDY    50  44  79 E6        30.05S
WAUTOMA        NOT AVBL
WISC RAPIDS    CLOUDY    49  42  77 SE7       30.04R
6HR MIN TEMP:  49; 6HR MAX TEMP:  55;

CAMP DOUGLAS   NOT AVBL
$$

WIZ011>013-019>022-031-037>040-048>050-010100-
NORTHEAST WISCONSIN

CITY           SKY/WX    TMP DP  RH WIND       PRES   REMARKS
ANTIGO         PTCLDY    46  43  87 SE5       30.02F
SHAWANO        CLOUDY    49  43  80 E7        30.05F
6HR MIN TEMP:  48; 6HR MAX TEMP:  51;

OCONTO         CLOUDY    49  44  84 CALM      30.06R
STURGEON BAY   NOT AVBL
GREEN BAY      CLOUDY    49  44  83 E7        30.06S
6HR MIN TEMP:  48; 6HR MAX TEMP:  50;

MANITOWOC      NOT AVBL
APPLETON       CLOUDY    46  43  87 VRB6      30.05S
CLINTONVILLE   CLOUDY    46  41  81 E3        30.05S
OSHKOSH        CLOUDY    49  44  83 E6        30.04S
6HR MIN TEMP:  48; 6HR MAX TEMP:  50;

$$

WIZ032>034-041-042-053>061-010100-
SOUTHWEST WISCONSIN

CITY           SKY/WX    TMP DP  RH WIND       PRES   REMARKS
LA CROSSE      MOCLDY    53  44  71 SE7       29.98S
6HR MIN TEMP:  52; 6HR MAX TEMP:  58;

SPARTA         CLOUDY    47  40  79 E7        30.01F
VIROQUA        MOCLDY    48  43  83 E7        29.98F
BOSCOBEL       PTCLDY    50  43  77 NE6       30.01S
6HR MIN TEMP:  50; 6HR MAX TEMP:  56;

PRAIRIE DU CHI PTCLDY    54  43  65 E8        29.97S
PLATTEVILLE    CLEAR     51  44  77 E8        30.00S
$$

WIZ056-057-062-063-064-067-068-010100-
SOUTH CENTRAL WISCONSIN

CITY           SKY/WX    TMP DP  RH WIND       PRES   REMARKS
REEDSBURG      CLOUDY    47  42  83 E5        30.02S
BARABOO/DELLS  CLOUDY    47  41  80 SE6       30.03S
LONE ROCK      NOT AVBL
MINERAL POINT  PTCLDY    48  43  81 E6        30.00S
MADISON        NOT AVBL
MIDDLETON      CLOUDY    49  42  76 E5        30.03S
WATERTOWN      CLOUDY    51  45  77 E3        30.02S
MONROE         MOCLDY    46  43  87 NE7       30.00S
JANESVILLE     CLEAR     54  43  66 E7        30.01S
$$

WIZ051-052-058>065-066-070>072-010100-
SOUTHEAST WISCONSIN

CITY           SKY/WX    TMP DP  RH WIND       PRES   REMARKS
MILWAUKEE      DRIZZLE   50  47  89 N10       30.03F FOG
6HR MIN TEMP:  50; 6HR MAX TEMP:  54; 6HR PCP: TRACE;

WAUKESHA       CLOUDY    48  43  81 E8        30.04S
MILWAUKEE/TIMM NOT AVBL
RACINE         CLOUDY    52  48  86 NE9       30.04S
6HR MIN TEMP:  51; 6HR MAX TEMP:  54; 6HR PCP: TRACE;

BURLINGTON     CLOUDY    50  44  79 NE3       30.03S
KENOSHA        CLOUDY    52  49  89 N5        30.02F FOG
6HR MIN TEMP:  52; 6HR MAX TEMP:  56;

FOND DU LAC    CLOUDY    49  43  80 E6        30.05S
6HR MIN TEMP:  48; 6HR MAX TEMP:  50;

SHEBOYGAN      CLOUDY    48  45  89 NE9       30.04F
6HR MIN TEMP:  48; 6HR MAX TEMP:  51;

WEST BEND      CLOUDY    46  41  81 NE7       30.04S
JUNEAU         CLOUDY    50  44  78 E8        30.04S
$$

LSZ147-162-010100-
LAKE SUPERIOR

STATION/POSITION TIME  TEMP    WIND        PRES    WAVE
                       AIR SEA DIR/SP/G            HT/PER
                 (UTC) (F)     (DEG/KT/KT) (MB)    (FT/S)
W MID LAKE BUOY  2250   47 50   70/ 14/ 16 1017.8F   2/ 4
DEVILS ISLAND    2300   47      80/ 17/ 19 1017.1F
SAXON HARBOR     2300   48      50/ 11/ 14 1015.9
$$

LMZ867-665-643>646-010100-
LAKE MICHIGAN

STATION/POSITION TIME  TEMP    WIND        PRES    WAVE
                       AIR SEA DIR/SP/G            HT/PER
                 (UTC) (F)     (DEG/KT/KT) (MB)    (FT/S)
CHAMBERS ISLAND  2300   51      50/  6/  8 1017.9S
S GREEN BAY BUOY 2300   51                 1018.6F
N MID LAKE BUOY  2250   53 58   40/  6/  8 1018.1R   1/ 3
NORTHPORT PIER   2300   51      CALM  /  1 1017.9S
KEWAUNEE LAKESHO 2300   49      40/  5/  8 1016.8F
SHEBOYGAN LAKESH 2300   49 55   10/  8/  9 1018.5R
PORT WASHINGTON  2300   51      30/  7/ 11 1017.9
ATWATER BUOY     2300   51      10/ 14/ 17 1018.0S
MILWAUKEE LAKESH 2300   51      10/ 13/ 16   N/A
S MID LAKE BUOY  2250   54 62   20/ 12/ 14 1016.6R   4/ 7
KENOSHA   LAKESH 2300   54      40/ 11/ 13 1016.6R
$$

TC  - TEMPERATURE IN CELSIUS
VSB - VISIBILITY IN STATUTE MILES
WCI - WIND CHILL INDEX
HX  - HEAT INDEX




USA.gov is the U.S. government's official web portal to all federal, state and local government web resources and services.